Regional Weather Roundup
Issued by NWS Charleston, WV

Home | Current Version | Previous Version | Graphics & Text | Print | Product List | Glossary On
Versions: 1 2 3 4 5 6 7 8 9 10 11 12 13 14 15 16 17 18 19 20 21 22 23 24 25 26 27 28 29 30 31 32 33 34 35 36 37 38 39 40 41 42 43 44 45 46 47 48 49 50
000
ASUS41 KRLX 260510
RWRRLX
West Virginia Regional Weather Roundup
National Weather Service Charleston WV
100 AM EDT TUE MAY 26 2015

Note: "fair" indicates few or no clouds below 12,000 feet with no
significant weather and/or obstructions to visibility.

WVZ003-260600-
Northern Panhandle of West Virginia

CITY           SKY/WX    TMP DP  RH WIND       PRES   REMARKS
WHEELING       NOT AVBL
$$

WVZ009-260600-
Northwest West Virginia

CITY           SKY/WX    TMP DP  RH WIND       PRES   REMARKS
PARKERSBURG    MOCLDY    67  62  84 CALM      30.17R
$$

WVZ006-260600-
Western West Virginia

CITY           SKY/WX    TMP DP  RH WIND       PRES   REMARKS
HUNTINGTON     MOCLDY    68  65  90 CALM      30.14R
$$

WVZ015-260600-
West Central West Virginia

CITY           SKY/WX    TMP DP  RH WIND       PRES   REMARKS
CHARLESTON     PTCLDY    68  64  87 CALM      30.15R
$$

WVZ022-031-260600-
North Central West Virginia

CITY           SKY/WX    TMP DP  RH WIND       PRES   REMARKS
CLARKSBURG     MOCLDY    66  61  84 CALM      30.18R
MORGANTOWN     CLEAR     67  57  70 CALM      30.18R
$$

WVZ025-035-042-045-260600-
Southern West Virginia

CITY           SKY/WX    TMP DP  RH WIND       PRES   REMARKS
BECKLEY        MOCLDY    67  54  63 S8        30.26R
LOGAN            N/A     73  61  64 SE5       30.16S
BLUEFIELD      CLOUDY    69  55  60 S10G17    30.28F
LEWISBURG      PTCLDY    63  56  78 NE3       30.27S
$$

WVZ047-260600-
Northern Mountains of West Virginia

CITY           SKY/WX    TMP DP  RH WIND       PRES   REMARKS
ELKINS         CLEAR     58  54  86 CALM      30.24R
$$

WVZ052-260600-
Eastern Panhandle of West Virginia

CITY           SKY/WX    TMP DP  RH WIND       PRES   REMARKS
MARTINSBURG    CLEAR     67  56  67 SW3       30.18S
PETERSBURG     CLEAR     70  55  59 SE8       30.20S
$$


USA.gov is the U.S. government's official web portal to all federal, state and local government web resources and services.